Date,TemperatureHighF,TemperatureAvgF,TemperatureLowF,DewpointHighF,DewpointAvgF,DewpointLowF,HumidityHigh,HumidityAvg,HumidityLow,PressureMaxIn,PressureMinIn,WindSpeedMaxMPH,WindSpeedAvgMPH,GustSpeedMaxMPH,PrecipitationSumIn
2013-1-1,48.8,42.6,33.5,45.8,35.0,25.9,94,75,54,30.30,29.98,8,5,12,0.01
2013-1-2,44.6,34.8,26.6,28.8,26.0,22.7,85,71,50,30.38,30.25,6,1,8,0.00
2013-1-3,43.0,34.7,22.0,31.4,26.6,19.0,92,73,55,30.50,30.35,8,2,11,0.00
2013-1-4,40.7,37.3,32.5,36.5,33.6,28.5,95,87,62,30.53,30.38,7,1,7,0.15
2013-1-5,56.3,42.7,33.3,39.4,35.5,30.2,97,78,46,30.39,30.21,6,1,13,0.00
2013-1-6,57.4,42.1,30.9,32.3,28.2,25.2,90,61,31,30.45,30.31,8,2,11,0.00
2013-1-7,52.5,39.6,25.5,35.2,29.6,22.4,91,70,46,30.34,30.08,12,2,14,0.00
2013-1-8,49.4,46.1,40.0,48.3,43.6,33.0,96,91,73,30.08,29.90,10,2,10,0.77
2013-1-9,54.1,51.1,47.3,52.4,50.0,46.2,97,96,93,30.08,29.83,15,4,21,0.55
2013-1-10,59.8,50.1,45.0,48.0,45.9,42.6,97,86,64,30.00,29.92,6,1,15,0.01
2013-1-11,72.8,56.7,43.3,56.8,49.6,40.3,93,79,52,29.94,29.74,14,2,15,0.00
2013-1-12,60.0,52.9,36.4,58.7,43.8,25.7,96,73,51,29.96,29.67,11,4,18,0.00
2013-1-13,43.8,35.4,28.3,27.1,23.8,20.3,73,63,47,30.26,29.97,11,7,18,0.00
2013-1-14,43.2,33.4,26.6,26.6,22.6,18.2,76,65,50,30.32,30.17,10,5,14,0.00
2013-1-15,39.1,34.2,27.4,27.7,24.4,18.9,85,68,54,30.29,30.16,10,6,15,0.00
2013-1-16,51.0,35.5,23.1,28.0,22.0,18.8,85,62,30,30.37,30.21,10,2,16,0.00
2013-1-17,61.4,44.6,30.8,36.1,30.8,26.0,88,62,32,30.52,30.32,8,2,11,0.00
2013-1-18,63.5,44.9,26.6,36.4,31.1,24.4,93,63,32,30.50,30.26,11,1,13,0.00
2013-1-19,70.6,50.5,37.8,43.6,36.3,32.5,87,61,28,30.26,30.09,9,1,15,0.00
2013-1-20,69.5,51.4,31.4,38.7,34.0,28.4,91,56,25,30.23,30.06,4,1,6,0.00
2013-1-21,61.2,46.4,33.6,40.2,34.8,29.4,88,66,42,30.27,30.12,7,1,9,0.00
2013-1-22,72.1,51.8,33.4,47.9,38.8,29.1,86,63,41,30.29,30.13,9,2,14,0.00
2013-1-23,77.3,58.9,41.9,54.9,48.7,39.5,95,72,44,30.27,30.10,7,2,10,0.00
2013-1-24,83.7,75.2,65.8,59.3,51.8,45.6,73,46,27,30.15,29.99,7,4,14,0.00
2013-1-25,70.4,60.5,46.6,56.8,49.7,39.8,88,69,47,30.14,29.98,10,3,17,0.00
2013-1-26,63.6,52.0,42.7,56.5,46.2,37.6,93,81,69,30.17,30.03,12,2,12,0.00
2013-1-27,76.1,64.0,54.0,59.5,56.4,52.5,96,78,53,30.03,29.86,16,6,20,0.00
2013-1-28,80.1,69.7,62.0,64.3,62.0,59.8,94,78,54,29.93,29.76,19,7,24,0.00
2013-1-29,76.8,66.0,53.0,65.6,48.3,18.1,90,58,24,29.75,29.48,17,10,30,0.00
2013-1-30,53.9,46.0,32.9,29.0,19.9,12.0,64,38,19,30.18,29.75,15,8,30,0.00
2013-1-31,68.1,47.0,25.9,30.5,22.4,20.0,83,45,17,30.26,30.14,3,0,7,0.00
2013-2-1,69.5,52.2,37.0,38.8,32.8,24.3,73,49,29,30.33,30.10,9,2,14,0.00
2013-2-2,67.6,54.1,40.2,49.0,37.9,32.9,82,57,29,30.31,30.12,12,3,14,0.00
2013-2-3,67.7,52.1,33.1,45.6,34.2,26.9,85,55,23,30.33,29.96,10,3,15,0.00
2013-2-4,77.0,63.9,54.4,54.4,45.2,36.1,77,54,27,29.95,29.73,12,3,14,0.00
2013-2-5,75.2,58.7,42.9,49.1,40.4,34.1,77,54,25,29.99,29.83,4,1,7,0.00
2013-2-6,76.9,62.2,47.9,59.4,53.5,44.5,94,75,46,29.94,29.73,11,4,15,0.50
2013-2-7,75.3,63.7,53.0,58.8,50.4,40.1,93,66,29,30.12,29.83,10,4,17,0.00
2013-2-8,64.0,53.1,41.6,42.9,32.0,22.6,78,49,21,30.23,30.05,11,3,19,0.00
2013-2-9,64.8,55.5,48.7,61.5,49.2,29.0,96,81,42,30.07,29.66,18,9,23,0.00
2013-2-10,67.7,57.7,50.1,63.4,36.3,23.7,92,49,21,29.96,29.63,16,2,23,0.33
2013-2-11,59.3,52.5,48.1,46.3,42.8,40.4,86,70,52,30.05,29.95,15,6,19,0.03
2013-2-12,67.6,51.2,39.9,50.6,42.8,26.5,100,77,22,30.10,29.80,12,5,18,0.01
2013-2-13,60.3,44.7,31.5,36.1,30.8,26.5,92,62,30,30.17,30.02,6,0,7,0.00
2013-2-14,70.8,52.1,36.1,39.0,30.5,26.0,80,49,19,30.10,29.93,10,1,15,0.00
2013-2-15,51.9,46.4,37.1,38.0,30.7,19.7,77,55,33,30.41,30.01,18,8,20,0.00
2013-2-16,63.3,44.8,26.7,30.1,25.6,21.5,84,51,25,30.46,30.17,7,1,13,0.00
2013-2-17,71.4,55.5,38.9,46.9,33.1,25.5,72,45,20,30.17,29.86,14,5,18,0.00
2013-2-18,74.9,63.1,47.3,53.8,40.2,18.7,77,50,12,30.08,29.78,12,5,22,0.00
2013-2-19,61.3,51.7,37.0,32.1,27.9,19.4,77,43,21,30.26,30.05,15,6,18,0.00
2013-2-20,55.5,50.5,47.7,47.7,39.9,30.3,95,69,38,30.06,29.62,23,11,25,0.00
2013-2-21,67.6,56.8,46.6,57.2,37.3,22.6,97,56,20,29.85,29.52,11,4,23,0.05
2013-2-22,53.4,42.3,30.7,38.6,29.2,21.9,80,61,41,30.11,29.83,12,4,12,0.00
2013-2-23,63.5,45.9,27.6,33.9,27.4,21.2,89,54,21,30.10,29.88,7,1,12,0.00
2013-2-24,74.1,56.6,38.3,55.6,42.9,32.2,81,62,40,29.88,29.50,17,10,23,0.00
2013-2-25,62.8,47.5,40.9,56.3,35.4,27.6,86,64,40,29.86,29.49,16,9,36,0.02
2013-2-26,61.6,46.0,31.1,31.5,28.2,25.4,80,53,27,29.97,29.82,8,1,12,0.00
2013-2-27,57.2,46.2,36.2,31.0,25.1,18.1,78,46,22,30.26,29.81,12,5,16,0.00
2013-2-28,59.6,44.5,30.1,30.4,23.8,19.5,81,49,22,30.35,30.20,11,3,13,0.00
2013-3-1,63.4,45.7,26.6,29.6,23.8,19.7,79,47,19,30.33,30.17,11,3,18,0.00
2013-3-2,63.0,49.5,33.4,32.0,29.2,26.4,76,47,30,30.45,30.21,8,2,16,0.00
2013-3-3,79.2,63.9,39.0,34.7,28.5,23.9,70,31,14,30.21,29.75,12,6,18,0.00
2013-3-4,86.4,70.3,53.2,40.6,28.3,9.4,56,25,6,29.76,29.60,13,2,19,0.00
2013-3-5,65.6,50.9,39.3,42.3,19.7,6.4,62,33,12,30.38,29.70,21,10,23,0.00
2013-3-6,62.7,44.6,24.8,20.7,15.9,10.8,68,36,14,30.46,30.18,11,2,18,0.00
2013-3-7,72.3,55.7,40.6,53.1,34.5,17.2,75,45,32,30.20,30.02,15,5,19,0.00
2013-3-8,65.7,61.1,57.1,60.5,57.3,53.1,96,88,75,30.06,29.89,20,12,25,0.00
2013-3-9,78.7,67.2,58.3,62.6,59.8,56.1,96,79,53,29.88,29.52,19,10,30,1.49
2013-3-10,59.8,53.2,43.3,55.3,34.1,24.5,85,49,32,30.09,29.72,15,7,25,0.01
2013-3-11,67.1,48.5,32.4,30.6,24.9,20.5,70,43,20,30.18,29.98,6,1,10,0.00
2013-3-12,78.6,60.8,42.2,39.0,32.1,24.7,65,38,14,30.27,30.00,16,4,20,0.00
2013-3-13,72.2,57.5,38.8,40.7,36.0,30.0,79,47,26,30.40,30.21,12,4,14,0.00
2013-3-14,77.0,61.7,46.3,51.4,44.1,37.6,75,54,35,30.31,30.13,11,4,18,0.00
2013-3-15,81.7,66.1,52.2,52.5,48.3,43.7,89,56,29,30.15,29.87,13,5,16,0.00
2013-3-16,89.0,70.9,54.6,53.7,50.3,46.4,80,52,24,29.87,29.58,16,7,19,0.00
2013-3-17,74.9,64.2,53.3,59.9,51.4,42.2,90,65,39,29.77,29.62,11,2,13,0.00
2013-3-18,74.1,63.0,48.7,49.9,45.7,41.0,91,56,34,29.93,29.64,13,3,16,0.00
2013-3-19,79.1,59.6,43.8,55.4,48.0,39.9,89,68,38,30.07,29.80,18,6,26,0.08
2013-3-20,67.6,56.9,45.9,49.5,39.3,30.4,87,55,25,30.27,30.00,13,5,15,0.07
2013-3-21,79.8,63.7,51.1,58.5,48.6,36.0,77,59,44,29.99,29.48,15,7,23,0.00
2013-3-22,65.5,57.8,47.4,57.9,49.2,41.9,96,74,53,29.75,29.54,11,5,15,0.00
2013-3-23,77.4,57.9,46.5,56.2,48.0,41.8,93,73,35,29.78,29.56,17,4,17,0.00
2013-3-24,56.2,46.3,35.0,50.8,26.1,18.4,82,48,27,30.19,29.77,18,9,25,0.00
2013-3-25,55.7,43.9,31.1,22.3,18.9,13.6,60,38,23,30.40,30.17,9,5,12,0.00
2013-3-26,63.3,47.2,26.7,24.3,20.5,17.6,76,39,18,30.48,30.23,11,3,14,0.00
2013-3-27,69.6,55.6,40.0,47.6,36.3,23.6,68,49,36,30.26,30.04,17,7,27,0.00
2013-3-28,74.4,60.6,47.1,57.4,51.6,43.9,92,73,51,30.13,30.01,16,7,22,0.00
2013-3-29,76.7,66.7,54.3,58.0,56.2,52.4,95,71,50,30.09,29.97,15,7,21,0.00
2013-3-30,83.2,72.7,61.1,62.8,59.9,55.6,89,65,47,30.02,29.77,11,7,15,0.00
2013-3-31,80.7,71.5,62.7,62.8,57.3,52.7,90,63,39,29.93,29.81,16,6,19,0.00
2013-4-1,83.9,69.0,51.7,61.4,55.3,48.5,92,65,36,30.01,29.80,13,5,17,0.00
2013-4-2,72.1,62.5,45.2,65.7,57.8,43.6,96,85,71,30.01,29.81,15,7,18,0.59
2013-4-3,54.4,46.0,44.3,53.0,43.6,41.0,97,91,87,30.18,29.78,24,7,31,0.16
2013-4-4,57.4,46.9,41.7,44.1,40.1,36.9,93,78,59,30.26,30.12,9,6,13,0.01
2013-4-5,71.9,60.9,38.1,51.4,47.1,37.1,96,62,41,30.26,29.99,11,4,12,0.00
2013-4-6,82.3,66.5,51.5,58.9,52.4,46.9,85,63,39,29.99,29.74,14,7,20,0.00
2013-4-7,82.9,69.3,55.8,65.6,60.5,53.7,94,75,53,29.82,29.63,18,8,22,0.00
2013-4-8,78.0,70.1,65.3,66.8,63.3,60.6,86,80,64,29.68,29.53,18,12,24,0.00
2013-4-9,84.7,75.1,67.9,69.2,65.5,62.5,85,73,54,29.59,29.46,20,15,27,0.00
2013-4-10,65.8,44.7,36.0,55.7,38.3,33.4,92,79,66,30.00,29.60,14,8,17,0.10
2013-4-11,66.2,52.8,39.5,41.6,36.6,30.9,84,57,32,30.02,29.77,6,1,10,0.00
2013-4-12,79.7,61.9,46.3,48.6,44.1,40.8,83,56,30,29.95,29.77,14,4,16,0.00
2013-4-13,78.4,66.9,52.4,50.7,46.5,40.9,69,49,31,29.88,29.69,15,8,18,0.00
2013-4-14,94.9,75.0,55.2,60.7,48.5,36.1,91,49,13,29.73,29.46,9,4,11,0.00
2013-4-15,93.2,80.3,66.9,64.9,59.9,50.3,86,53,26,29.65,29.53,17,9,21,0.00
2013-4-16,90.1,76.8,66.5,68.3,64.9,62.1,87,68,47,29.77,29.65,17,11,24,0.00
2013-4-17,83.5,75.4,72.2,70.1,68.5,65.2,90,80,59,29.77,29.51,20,14,25,0.00
2013-4-18,75.5,56.4,45.0,70.3,44.4,31.7,93,67,39,30.13,29.48,17,9,23,0.33
2013-4-19,65.1,51.6,36.5,34.6,29.8,21.6,84,48,21,30.33,30.13,8,2,13,0.00
2013-4-20,72.8,57.6,39.9,36.1,32.6,30.2,74,43,23,30.17,29.91,18,8,19,0.00
2013-4-21,74.6,62.3,52.2,53.6,49.3,34.3,82,64,39,30.10,29.95,14,9,18,0.00
2013-4-22,82.2,68.8,58.7,60.7,56.5,51.9,86,67,42,30.02,29.74,15,9,20,0.00
2013-4-23,67.0,54.2,43.6,61.3,46.3,35.5,92,75,67,30.18,29.72,11,6,16,0.00
2013-4-24,62.9,50.2,36.8,36.4,32.6,26.5,73,53,35,30.33,30.18,13,8,17,0.00
2013-4-25,69.1,61.1,54.1,45.5,41.3,35.4,57,48,37,30.31,30.08,13,7,16,0.00
2013-4-26,80.0,68.7,61.1,63.9,57.4,41.8,88,68,46,30.09,29.92,17,9,20,0.00
2013-4-27,79.4,71.0,62.2,64.6,57.6,51.2,93,65,38,30.05,29.91,10,3,16,0.00
2013-4-28,88.2,71.2,50.7,63.8,53.7,46.0,94,60,25,29.99,29.75,10,3,16,0.00
2013-4-29,86.7,74.1,59.1,63.9,58.2,50.6,92,61,29,29.84,29.66,19,6,19,0.00
2013-4-30,87.2,72.4,58.6,63.1,59.7,56.8,96,68,38,29.75,29.61,14,6,16,0.00
2013-5-1,89.7,76.4,64.5,66.0,63.4,59.6,93,67,42,29.92,29.67,16,5,21,0.69
2013-5-2,69.5,48.5,42.9,63.4,42.0,35.4,92,78,63,30.39,29.78,14,9,23,0.01
2013-5-3,66.6,52.2,38.0,36.4,31.4,25.2,79,50,21,30.39,30.03,11,2,17,0.00
2013-5-4,79.6,61.3,39.0,38.5,33.1,28.1,87,42,17,30.03,29.87,6,2,14,0.00
2013-5-5,73.9,59.9,45.0,48.4,42.2,30.2,75,53,37,30.15,29.97,10,3,14,0.00
2013-5-6,68.5,59.7,49.5,52.8,48.7,45.0,88,68,49,30.10,29.98,6,1,9,0.00
2013-5-7,84.6,66.1,45.6,58.6,49.4,43.9,96,61,29,30.06,29.83,14,4,16,0.02
2013-5-8,77.5,70.5,60.8,65.2,60.4,51.7,85,71,54,29.90,29.80,14,6,18,0.00
2013-5-9,74.4,68.2,58.2,66.0,63.2,56.8,97,84,71,29.91,29.76,10,4,12,1.03
2013-5-10,79.2,66.9,60.7,66.1,61.9,59.0,97,86,56,30.03,29.81,12,3,13,1.93
2013-5-11,78.1,67.6,57.0,59.7,54.8,47.8,95,68,35,30.13,30.02,14,5,18,0.01
2013-5-12,76.8,66.3,55.3,56.0,52.0,48.1,87,62,40,30.25,30.09,8,1,13,0.00
2013-5-13,84.4,69.2,51.9,55.8,51.0,42.3,92,58,23,30.21,30.06,9,2,12,0.00
2013-5-14,84.8,72.5,57.5,64.0,56.9,52.2,87,60,35,30.13,29.88,15,5,17,0.00
2013-5-15,86.9,74.3,63.4,70.3,65.0,59.0,96,75,49,29.98,29.64,14,6,18,0.45
2013-5-16,93.9,78.4,64.8,73.8,68.7,61.8,95,75,42,29.72,29.59,11,4,14,0.00
2013-5-17,93.4,80.7,70.4,76.5,71.0,60.6,97,75,40,29.74,29.64,14,5,16,0.02
2013-5-18,91.2,80.7,69.6,74.6,70.3,66.7,95,73,52,29.78,29.64,15,7,24,0.00
2013-5-19,91.0,80.2,67.2,73.6,69.0,63.5,89,70,53,29.74,29.56,17,8,21,0.00
2013-5-20,92.0,79.9,68.8,74.3,69.0,62.7,94,71,51,29.71,29.50,17,9,20,0.00
2013-5-21,84.1,73.4,62.3,72.8,63.6,54.3,91,73,48,29.83,29.61,13,6,19,0.00
2013-5-22,90.0,72.5,52.9,60.9,54.5,50.2,95,59,26,29.90,29.73,11,4,14,0.00
2013-5-23,88.6,77.9,68.0,72.9,68.8,61.0,95,75,56,29.98,29.79,17,8,22,0.00
2013-5-24,77.5,72.7,68.2,71.4,67.3,63.2,94,83,70,30.05,29.90,15,6,17,0.23
2013-5-25,81.4,72.7,67.2,70.3,67.5,63.7,97,85,66,30.06,29.92,17,8,22,0.08
2013-5-26,85.8,77.1,69.7,71.8,68.6,65.7,93,77,52,30.00,29.83,15,8,23,0.00
2013-5-27,85.0,76.2,68.6,72.7,69.0,65.9,91,79,60,29.90,29.71,16,9,20,0.00
2013-5-28,85.7,77.5,68.5,70.8,67.9,64.8,89,73,57,29.78,29.63,24,10,27,0.00
2013-5-29,84.7,77.6,72.6,72.4,69.4,67.0,86,76,62,29.69,29.55,21,14,27,0.00
2013-5-30,88.9,79.8,72.9,73.2,70.2,67.7,88,73,57,29.72,29.62,18,9,23,0.00
2013-5-31,93.5,83.8,74.6,75.3,72.6,69.9,89,70,52,29.74,29.59,15,9,20,0.00
2013-6-1,92.4,82.2,74.0,73.7,71.3,68.1,88,71,52,29.87,29.61,14,6,16,0.00
2013-6-2,85.8,75.4,64.7,69.4,60.9,56.9,87,63,39,30.02,29.85,13,3,15,0.09
2013-6-3,71.2,65.5,61.8,60.5,58.8,57.5,87,79,69,29.93,29.90,6,0,7,0.00
2013-6-6,87.1,81.5,72.6,66.2,63.4,61.5,73,55,45,29.88,29.76,12,6,18,0.04
2013-6-7,84.1,74.1,65.8,65.4,59.5,52.0,93,64,34,29.97,29.81,12,2,15,0.06
2013-6-8,89.8,76.2,58.8,67.0,59.3,54.3,86,58,37,29.89,29.69,14,6,17,0.00
2013-6-9,91.2,78.5,64.8,71.0,66.5,61.3,96,69,38,29.90,29.74,16,2,21,0.65
2013-6-10,96.4,81.3,67.8,70.8,62.5,50.3,95,60,23,29.93,29.82,12,3,13,0.00
2013-6-11,94.3,82.1,70.6,72.1,67.2,57.8,92,63,41,29.94,29.82,14,6,20,0.00
2013-6-12,93.8,82.4,70.3,71.2,68.4,66.2,95,66,41,29.97,29.83,12,5,15,0.00
2013-6-13,96.0,82.8,71.6,72.2,68.2,63.0,92,64,38,29.98,29.81,14,4,14,0.00
2013-6-14,87.2,78.8,70.4,70.1,67.9,65.8,89,70,54,29.94,29.83,11,2,17,0.00
2013-6-15,89.5,80.4,73.5,72.7,69.3,65.5,88,70,51,29.93,29.80,10,2,14,0.00
2013-6-16,95.5,82.3,71.5,72.0,68.0,65.9,88,65,39,29.94,29.78,12,4,14,0.00
2013-6-17,98.2,83.6,68.4,73.0,68.7,64.2,90,64,36,29.91,29.71,18,4,21,0.65
2013-6-18,93.0,79.6,69.0,70.8,66.8,61.5,93,68,37,29.95,29.81,7,1,9,0.01
2013-6-19,95.9,82.3,72.8,71.8,68.5,64.7,89,66,36,29.87,29.78,19,4,19,0.00
2013-6-20,94.4,83.3,73.2,70.0,67.4,62.5,85,61,41,29.94,29.82,15,7,20,0.00
2013-6-21,96.0,85.0,74.4,70.6,66.4,60.7,86,57,32,29.97,29.83,16,8,20,0.00
2013-6-22,96.2,84.8,74.2,70.3,64.7,60.1,83,54,31,29.93,29.77,16,9,22,0.00
2013-6-23,95.1,84.6,73.0,67.7,63.7,58.6,82,52,32,29.87,29.77,17,11,21,0.00
2013-6-24,95.3,84.0,72.5,69.6,66.3,61.7,84,57,37,29.92,29.77,16,10,19,0.00
2013-6-25,99.6,86.9,76.3,71.5,66.7,60.7,79,54,29,29.88,29.72,15,10,18,0.00
2013-6-26,99.3,87.2,74.6,73.4,69.4,64.9,82,58,36,29.85,29.74,13,8,22,0.00
2013-6-27,102.9,88.3,75.7,70.2,62.9,53.1,82,48,20,29.93,29.78,9,4,14,0.00
2013-6-28,104.7,88.4,70.1,68.5,61.2,54.7,72,43,23,29.92,29.71,10,2,12,0.00
2013-6-29,102.3,91.0,75.8,69.4,63.7,57.2,74,43,23,29.81,29.67,9,3,11,0.00
2013-6-30,92.2,82.0,68.7,71.1,65.6,58.7,95,60,41,29.89,29.74,14,1,15,0.28
2013-7-1,87.2,77.8,68.8,62.8,56.2,47.2,80,49,26,30.00,29.85,13,3,19,0.00
2013-7-2,88.4,76.9,61.9,55.5,50.6,43.6,76,43,22,30.06,29.91,11,3,18,0.00
2013-7-3,91.8,77.1,58.3,56.1,49.4,42.7,80,42,19,30.00,29.85,9,2,13,0.00
2013-7-4,93.7,80.4,64.3,60.8,52.4,46.9,66,40,21,29.92,29.80,7,2,10,0.00
2013-7-5,97.0,84.3,67.9,60.2,54.5,47.6,70,39,19,29.90,29.74,13,4,15,0.00
2013-7-6,97.0,83.8,71.7,65.3,60.4,54.2,75,48,24,29.85,29.73,14,4,17,0.00
2013-7-7,96.6,86.0,73.1,70.3,64.3,57.0,81,51,29,29.90,29.79,13,6,18,0.00
2013-7-8,93.3,82.7,75.2,71.9,69.7,66.0,86,66,41,30.00,29.88,15,6,18,0.00
2013-7-9,98.0,85.5,73.1,71.6,66.8,61.9,88,57,32,30.05,29.90,12,5,17,0.00
2013-7-10,101.4,88.3,75.3,71.5,65.6,59.3,82,51,26,30.00,29.80,11,3,15,0.00
2013-7-11,100.8,88.0,75.3,70.7,65.7,60.7,79,51,29,29.90,29.75,10,2,15,0.00
2013-7-12,100.7,87.9,75.1,69.8,63.5,59.6,72,47,28,29.87,29.76,12,3,15,0.00
2013-7-13,101.9,89.3,72.7,65.4,60.1,54.7,69,41,22,29.90,29.74,9,2,15,0.00
2013-7-14,90.0,81.0,67.0,66.4,63.3,59.6,94,57,38,29.88,29.76,16,6,23,0.14
2013-7-15,72.6,68.9,65.1,70.8,67.6,63.9,97,95,92,29.99,29.84,12,5,15,1.72
2013-7-16,84.9,76.1,70.6,74.2,70.3,68.2,97,84,58,30.10,29.97,14,6,19,0.19
2013-7-17,81.5,73.1,70.3,74.2,70.9,69.1,96,93,75,30.13,30.05,11,2,15,0.63
2013-7-18,88.6,77.9,70.1,73.2,69.7,66.5,97,78,49,30.13,29.94,8,2,12,0.01
2013-7-19,92.6,81.3,70.0,72.6,67.7,60.4,96,67,36,30.00,29.83,8,1,11,0.00
2013-7-20,92.8,82.0,71.2,71.6,68.8,65.0,94,67,41,29.91,29.75,8,2,10,0.00
2013-7-21,94.7,82.3,72.2,73.4,70.2,66.2,92,69,42,29.87,29.75,7,1,10,0.00
2013-7-22,94.0,84.0,74.8,75.4,71.9,68.0,92,69,44,29.90,29.77,11,5,14,0.00
2013-7-23,95.8,85.0,77.8,76.0,71.4,64.2,87,66,39,29.89,29.75,12,4,14,0.00
2013-7-24,97.1,85.3,74.1,74.9,70.1,64.9,89,63,36,29.90,29.78,8,2,10,0.00
2013-7-25,96.1,85.9,75.5,74.6,71.0,68.1,85,63,41,29.94,29.86,10,2,12,0.00
2013-7-26,98.4,85.7,78.7,73.0,70.0,67.5,75,61,39,29.92,29.78,9,2,14,0.00
2013-7-27,89.8,80.0,71.5,69.7,66.1,58.9,86,65,36,29.96,29.83,12,4,15,0.00
2013-7-28,93.3,85.3,70.8,72.0,68.2,64.1,83,58,42,29.90,29.75,10,4,12,0.00
2013-7-29,97.6,86.9,78.9,75.1,69.0,57.6,81,58,27,29.89,29.80,14,9,17,0.00
2013-7-30,100.0,87.1,76.7,73.7,68.4,61.0,81,57,28,29.97,29.84,12,6,15,0.00
2013-7-31,99.8,88.3,78.3,69.2,66.5,62.8,71,50,33,30.00,29.83,5,1,10,0.00
2013-8-1,100.1,87.3,73.4,69.0,65.8,62.4,77,51,30,29.96,29.80,5,1,10,0.00
2013-8-2,99.4,88.0,75.4,68.2,64.9,59.3,73,49,27,29.88,29.76,12,4,14,0.00
2013-8-3,98.9,87.2,74.0,70.3,65.8,61.6,76,51,32,29.91,29.82,12,4,14,0.00
2013-8-4,97.3,86.9,75.5,70.8,68.0,63.5,81,55,36,29.98,29.82,11,5,17,0.00
2013-8-5,100.0,88.8,75.8,70.4,65.1,58.8,75,48,26,29.92,29.74,10,4,12,0.00
2013-8-6,102.3,89.7,76.6,71.5,66.9,60.6,79,50,28,29.83,29.67,13,5,17,0.00
2013-8-7,104.5,91.1,77.8,71.3,66.7,61.9,75,48,26,29.80,29.65,14,5,15,0.00
2013-8-8,102.1,89.0,76.8,70.2,64.6,56.7,78,49,23,29.78,29.65,12,4,15,0.00
2013-8-9,102.3,89.9,80.7,70.1,63.3,56.7,68,44,25,29.87,29.74,9,2,12,0.00
2013-8-10,96.8,86.5,72.8,69.4,64.9,56.2,73,50,39,29.98,29.86,9,3,13,0.00
2013-8-11,97.4,86.8,74.1,71.4,68.3,64.7,84,57,35,30.00,29.86,12,4,15,0.00
2013-8-12,97.1,85.6,73.0,71.0,67.2,63.1,85,57,34,29.98,29.82,9,2,12,0.00
2013-8-13,100.3,88.5,77.7,71.2,65.7,58.9,78,50,26,29.94,29.78,7,1,8,0.00
2013-8-14,93.4,84.8,77.1,72.5,68.5,61.4,79,59,46,29.94,29.83,14,3,14,0.00
2013-8-15,91.7,78.6,69.7,72.7,70.5,66.0,94,78,50,29.94,29.83,14,3,18,0.19
2013-8-16,87.5,75.4,65.4,70.9,67.2,63.2,97,78,47,30.06,29.89,19,3,19,0.11
2013-8-17,91.6,79.4,68.2,69.2,63.7,58.3,88,62,33,30.03,29.88,9,2,13,0.00
2013-8-18,92.7,80.1,66.6,63.7,60.4,57.3,85,54,32,30.01,29.90,10,3,15,0.00
2013-8-19,93.3,81.1,68.8,65.2,62.2,60.6,78,55,36,29.99,29.84,10,3,14,0.00
2013-8-20,92.9,79.5,71.1,66.0,63.1,59.2,76,59,33,29.96,29.88,10,3,15,0.00
2013-8-22,91.1,86.7,82.3,66.8,65.4,62.9,59,50,40,29.92,29.84,2,0,7,0.00
2013-8-23,94.2,82.0,72.8,76.4,69.5,65.9,85,67,41,29.95,29.82,12,2,15,0.22
2013-8-24,96.5,84.0,70.8,72.2,68.1,62.4,93,63,34,30.00,29.85,10,1,12,0.00
2013-8-25,95.8,85.1,74.6,71.8,66.8,63.2,83,57,35,30.03,29.93,13,4,17,0.00
2013-8-26,90.8,81.9,74.0,70.2,67.5,64.7,83,63,44,30.07,29.94,13,6,14,0.00
2013-8-27,81.1,75.3,71.5,73.8,70.8,68.4,96,86,74,30.05,29.94,10,4,14,0.38
2013-8-28,93.0,80.7,69.3,71.7,67.0,62.4,97,67,37,30.05,29.92,9,2,17,0.00
2013-8-29,96.5,83.6,71.4,72.7,66.5,61.6,89,60,33,30.03,29.89,7,1,11,0.00
2013-8-30,98.7,84.5,69.9,70.0,65.7,60.3,93,58,29,29.97,29.80,5,1,11,0.00
2013-8-31,100.5,86.2,71.7,68.1,65.1,59.9,83,53,27,29.86,29.71,7,1,11,0.00
2013-9-1,100.5,86.2,74.1,69.8,66.8,63.7,77,55,31,29.83,29.70,12,1,14,0.00
2013-9-2,87.5,76.7,69.7,72.3,69.6,67.6,96,80,55,29.97,29.77,21,1,21,0.94
2013-9-3,94.5,80.0,71.3,73.4,71.2,68.2,96,77,44,29.96,29.85,4,0,11,0.00
2013-9-5,90.5,84.8,74.8,72.8,71.4,69.9,87,65,51,30.03,29.99,3,1,7,0.00
2013-9-7,92.9,81.4,71.3,71.5,68.3,65.5,86,66,43,29.97,29.88,9,1,20,0.00
2013-9-8,91.8,79.5,69.2,72.2,67.7,65.1,92,69,42,29.91,29.78,13,3,20,0.00
2013-9-9,90.8,79.1,68.8,70.6,67.4,64.0,93,70,42,29.93,29.81,18,6,20,0.00
2013-9-10,90.1,78.7,70.3,70.9,68.1,65.5,94,72,45,30.00,29.89,16,5,20,0.00
2013-9-11,92.0,80.3,70.8,72.6,65.8,57.8,92,65,32,30.05,29.92,11,3,20,0.00
2013-9-12,93.1,80.8,68.5,70.4,63.2,59.3,86,58,36,30.01,29.85,10,2,20,0.00
2013-9-13,95.7,82.3,68.1,68.2,61.4,56.7,82,53,28,29.91,29.74,11,2,20,0.00
2013-9-14,95.2,82.4,68.2,65.7,62.3,59.4,78,53,35,29.88,29.75,11,1,20,0.00
2013-9-15,91.8,82.6,73.1,68.9,66.4,62.3,83,60,41,29.94,29.84,12,4,20,0.00
2013-9-16,92.4,82.8,74.8,71.1,66.1,59.5,79,59,34,30.00,29.89,13,3,20,0.00
2013-9-17,90.5,80.6,73.8,71.2,68.7,65.5,90,69,45,30.00,29.86,9,2,20,0.00
2013-9-18,92.6,82.2,73.1,71.1,66.4,61.0,87,61,35,29.94,29.79,13,4,20,0.00
2013-9-19,82.9,76.2,72.3,73.5,70.3,64.9,96,83,62,29.91,29.79,6,1,11,0.45
2013-9-20,72.4,70.3,68.1,71.5,69.0,66.3,97,96,93,29.90,29.77,10,2,16,0.39
2013-9-21,80.8,69.9,60.6,67.2,57.3,48.0,95,68,33,29.97,29.83,9,4,14,0.00
2013-9-22,81.6,67.4,53.0,60.3,53.3,44.2,97,66,27,29.89,29.75,5,1,9,0.01
2013-9-23,86.4,71.6,56.3,57.1,53.8,48.2,90,58,29,29.80,29.69,8,2,11,0.00
2013-9-24,92.6,76.1,60.5,63.5,58.6,53.9,88,58,28,29.89,29.77,3,0,7,0.00
2013-9-25,92.9,78.2,63.8,65.0,61.8,59.7,90,60,35,29.84,29.68,8,1,12,0.00
2013-9-26,89.8,78.2,66.4,62.7,59.7,54.4,81,56,32,29.81,29.72,13,4,15,0.00
2013-9-27,87.3,78.7,70.8,73.4,70.7,61.3,90,77,61,29.83,29.71,15,8,19,0.00
2013-9-28,86.6,74.1,64.4,74.2,69.0,58.8,91,84,65,30.01,29.76,13,7,17,0.11
2013-9-29,79.0,68.2,60.0,59.4,55.4,49.6,93,66,37,30.04,29.90,6,2,10,0.05
2013-9-30,88.8,70.2,52.0,64.0,55.8,50.3,96,66,30,29.92,29.74,6,1,10,0.01
2013-10-1,90.1,75.5,61.0,70.1,62.8,55.5,86,67,43,29.84,29.75,11,4,16,0.00
2013-10-2,90.2,79.0,70.5,72.1,68.4,64.3,96,73,45,29.88,29.75,13,6,17,0.00
2013-10-3,91.9,80.0,70.9,71.4,67.3,63.2,94,68,39,29.84,29.70,14,6,17,0.00
2013-10-4,90.5,79.7,69.7,69.7,67.6,66.0,91,68,45,29.81,29.71,13,6,18,0.00
2013-10-5,78.1,64.9,53.1,70.5,54.6,42.4,85,70,51,30.10,29.77,14,5,18,0.00
2013-10-6,76.9,60.0,45.2,49.4,42.0,32.9,94,60,21,30.17,30.06,7,2,10,0.00
2013-10-7,84.1,63.5,42.8,45.6,40.8,37.6,86,50,20,30.15,30.01,3,0,10,0.00
2013-10-8,85.4,68.5,50.8,48.6,44.5,41.6,74,46,22,30.04,29.89,9,2,10,0.00
2013-10-9,84.8,69.0,52.7,57.1,52.2,46.8,81,58,33,30.00,29.86,13,5,20,0.00
2013-10-10,85.0,72.9,61.8,64.1,60.9,56.4,89,68,45,29.96,29.77,15,8,20,0.00
2013-10-11,87.0,77.0,67.7,69.4,66.1,62.6,91,71,51,29.84,29.74,12,4,20,0.00
2013-10-12,87.2,76.4,66.5,73.8,69.3,63.7,96,80,56,29.98,29.81,15,1,20,0.58
2013-10-13,74.2,69.4,65.4,68.5,66.1,63.2,97,90,80,30.14,29.95,11,4,20,0.04
2013-10-14,79.8,73.6,68.4,70.9,69.0,66.9,97,87,68,30.05,29.83,12,3,20,0.10
2013-10-15,71.9,63.0,50.8,70.5,61.9,49.9,97,96,94,30.04,29.83,9,3,13,1.39
2013-10-16,64.5,56.0,50.0,53.4,50.6,48.4,97,83,66,30.11,30.00,11,3,14,0.37
2013-10-17,69.8,57.8,45.2,51.5,48.4,43.9,96,73,46,30.12,29.94,6,1,8,0.00
2013-10-18,73.6,61.0,49.1,63.3,54.7,44.6,89,80,68,30.11,29.83,13,3,13,0.01
2013-10-19,65.1,51.6,40.6,44.6,40.7,37.1,92,69,36,30.23,30.07,9,3,17,0.00
2013-10-20,74.9,58.2,43.3,56.2,48.8,40.8,92,73,51,30.08,29.82,12,4,16,0.00
2013-10-21,68.8,60.2,52.2,59.1,53.3,49.7,92,78,64,30.10,29.86,9,2,13,0.00
2013-10-22,74.2,58.1,44.7,50.4,45.3,39.1,94,68,29,30.19,30.06,5,1,6,0.00
2013-10-23,81.2,61.3,44.8,50.8,45.9,40.5,94,62,25,30.15,30.03,4,0,10,0.00
2013-10-24,78.3,61.7,44.8,51.4,47.0,42.6,95,63,31,30.21,30.08,6,1,8,0.00
2013-10-25,75.1,62.6,51.5,57.8,52.9,47.0,88,72,48,30.30,30.15,13,3,20,0.00
2013-10-26,78.8,67.9,59.8,65.6,61.9,56.8,94,82,59,30.16,29.98,12,4,20,0.00
2013-10-27,68.7,61.9,56.5,62.2,57.2,53.4,95,85,71,30.10,29.96,5,1,20,0.01
2013-10-28,78.7,69.1,58.7,67.8,63.9,57.3,96,85,66,30.01,29.89,16,7,20,0.00
2013-10-29,78.4,73.2,68.8,70.1,67.6,64.7,93,83,73,29.98,29.88,11,6,20,0.02
2013-10-30,76.4,71.8,68.0,71.1,68.4,66.0,96,89,80,29.93,29.73,11,2,20,0.01
2013-10-31,74.6,67.5,51.8,67.1,48.6,35.9,96,56,26,29.86,29.66,8,2,20,0.00
2013-11-1,75.9,58.9,41.7,46.2,41.5,34.9,93,58,23,30.11,29.80,9,2,20,0.00
2013-11-2,69.0,56.6,44.0,42.7,37.9,31.3,78,53,26,30.31,30.11,7,2,20,0.00
2013-11-3,68.4,55.2,41.9,47.1,40.3,37.1,85,60,38,30.20,29.90,15,6,20,0.00
2013-11-4,63.4,59.6,55.7,59.9,56.0,43.1,95,88,52,29.99,29.87,13,4,13,0.06
2013-11-5,67.3,64.6,61.3,66.1,63.3,59.9,98,95,89,29.96,29.85,12,4,12,0.15
2013-11-6,63.1,54.1,42.1,62.5,46.4,36.5,100,77,41,30.36,29.92,10,3,13,0.13
2013-11-7,62.1,49.0,37.4,45.3,38.7,34.1,91,71,38,30.50,30.36,7,1,11,0.00
2013-11-8,59.8,52.8,44.9,45.6,41.9,34.8,93,69,40,30.39,30.10,10,3,11,0.00
2013-11-9,71.9,58.8,48.1,56.5,49.8,42.4,93,74,52,30.15,30.02,11,4,15,0.00
2013-11-10,67.7,57.4,48.0,60.4,54.5,46.9,98,90,74,30.29,30.14,6,2,8,0.01
2013-11-11,71.4,58.2,45.0,58.8,53.2,43.9,98,85,62,30.26,30.13,4,0,8,0.01
2013-11-12,57.3,47.2,35.3,54.1,36.4,19.9,95,69,38,30.67,30.25,15,7,15,0.00
2013-11-13,52.8,38.9,25.6,29.6,24.4,18.9,80,58,34,30.68,30.39,5,2,7,0.00
2013-11-14,61.9,46.9,31.3,41.9,33.6,26.6,84,63,37,30.38,29.99,13,4,19,0.00
2013-11-15,75.8,57.8,39.8,55.2,48.1,37.2,93,72,44,30.01,29.78,8,2,12,0.00
2013-11-16,79.8,65.7,54.2,63.8,58.6,51.7,95,80,53,29.83,29.64,12,4,16,0.00
2013-11-17,85.6,70.4,52.6,66.0,54.9,42.8,95,64,24,29.92,29.68,9,2,13,0.00
2013-11-18,73.8,64.0,52.6,51.1,43.7,36.0,79,48,39,30.10,29.92,9,3,11,0.00
2013-11-19,71.2,60.9,51.3,48.1,43.9,41.1,75,55,40,30.10,29.91,13,6,15,0.00
2013-11-20,71.9,62.9,53.5,62.3,57.1,46.8,89,82,70,29.96,29.80,12,8,15,0.00
2013-11-21,81.7,68.1,43.2,69.0,62.6,38.7,95,83,60,30.16,29.85,15,6,19,0.00
2013-11-22,42.8,33.5,31.1,38.3,30.7,28.2,93,90,84,30.50,30.16,13,8,20,0.08
2013-11-23,36.4,33.7,31.4,33.5,31.5,29.9,95,92,80,30.57,30.48,11,5,16,0.03
2013-11-24,36.6,34.5,31.2,31.2,29.8,28.0,94,83,71,30.57,30.33,13,6,14,0.26
2013-11-25,39.2,35.4,31.1,36.0,32.8,29.6,95,90,84,30.34,30.13,8,2,9,0.31
2013-11-26,50.7,40.5,34.3,35.4,30.8,26.5,91,70,43,30.41,30.20,13,7,21,0.00
2013-11-27,47.8,37.0,27.9,30.9,24.9,17.7,86,64,32,30.52,30.36,6,2,9,0.00
2013-11-28,56.8,41.1,30.2,32.5,29.1,26.2,87,65,36,30.43,30.31,7,2,13,0.00
2013-11-29,60.2,44.2,27.2,45.0,36.3,24.7,94,75,51,30.49,30.32,11,3,13,0.00
2013-11-30,67.2,52.5,39.8,54.2,47.9,38.3,97,86,62,30.34,30.13,9,2,16,0.00
2013-12-1,68.0,56.4,45.9,58.7,52.6,44.3,98,88,70,30.17,29.91,4,0,8,0.01
2013-12-2,77.2,58.8,45.1,53.5,44.5,38.2,95,66,27,29.92,29.63,9,2,15,0.01
2013-12-3,82.8,58.7,38.6,43.6,38.0,33.8,92,54,18,29.67,29.54,6,1,9,0.00
2013-12-4,85.7,65.1,49.8,59.5,48.7,41.9,84,58,28,29.77,29.58,9,1,10,0.00
2013-12-5,54.6,34.9,27.9,43.5,24.1,16.5,93,65,48,30.18,29.77,14,9,16,0.05
2013-12-6,29.8,25.7,21.9,28.0,22.3,17.2,99,87,81,30.55,30.13,0,0,5,0.00
2013-12-7,24.3,22.0,19.3,18.3,16.3,13.3,83,78,75,30.58,30.31,5,1,7,0.00
2013-12-8,40.6,30.3,23.7,34.9,26.9,18.1,95,87,79,30.31,30.05,5,1,6,0.35
2013-12-9,32.6,30.3,27.6,31.8,29.0,25.7,97,95,90,30.47,30.08,9,5,11,0.00
2013-12-10,41.8,30.8,20.0,27.9,24.2,18.1,100,78,53,30.56,30.35,5,1,9,0.15
2013-12-11,49.4,35.9,28.2,32.0,27.9,24.2,87,74,49,30.60,30.33,8,2,11,0.13
2013-12-12,45.8,36.4,26.0,35.3,29.4,23.7,92,77,55,30.63,30.29,6,0,11,0.00
2013-12-13,58.6,47.8,41.4,50.3,41.7,35.0,93,79,73,30.29,29.82,10,4,13,0.00
2013-12-14,50.5,43.6,31.7,42.9,33.2,26.9,85,67,46,30.38,29.84,12,4,19,0.00
2013-12-15,61.2,41.5,24.8,34.2,28.5,22.5,93,64,30,30.41,30.25,4,1,11,0.00
2013-12-16,67.9,46.6,27.9,38.2,32.0,24.8,90,62,30,30.28,30.15,5,0,11,0.00
2013-12-17,68.8,54.0,30.5,40.3,36.2,28.2,92,55,29,30.32,30.22,4,0,5,0.00
2013-12-18,68.5,51.0,34.3,52.0,41.9,30.5,90,72,47,30.26,29.97,13,4,16,0.00
2013-12-19,69.0,59.6,50.1,57.0,53.2,45.9,94,80,63,29.97,29.73,16,6,24,0.00
2013-12-20,63.2,52.7,34.2,60.6,50.6,32.8,98,93,79,29.83,29.68,11,3,13,0.05
2013-12-21,64.0,49.0,34.5,53.3,41.1,33.2,98,78,39,29.79,29.59,7,2,13,1.40
2013-12-22,47.0,40.3,31.2,38.3,31.3,26.6,91,71,49,30.39,29.78,11,5,13,0.00
2013-12-23,52.2,37.8,25.6,31.4,27.8,23.8,93,70,41,30.53,30.39,4,1,13,0.00
2013-12-24,60.2,43.4,30.6,35.9,30.9,27.2,89,64,36,30.53,30.23,13,4,19,0.00
2013-12-25,56.1,41.8,33.2,42.1,33.4,27.4,88,73,47,30.44,30.22,10,2,13,0.00
2013-12-26,52.8,38.7,28.9,35.0,31.1,27.2,94,77,43,30.47,30.34,4,1,13,0.00
2013-12-27,54.8,40.2,29.4,37.7,31.8,27.1,93,74,39,30.47,30.34,4,0,13,0.00
2013-12-28,57.5,46.4,34.2,49.2,41.2,31.6,93,83,70,30.34,29.97,7,1,13,0.01
2013-12-29,53.5,41.5,28.1,46.8,37.3,24.0,91,85,77,30.34,29.93,14,5,20,0.00
2013-12-30,47.2,34.4,24.2,29.4,24.6,20.9,89,69,45,30.43,30.27,5,1,13,0.00
2013-12-31,57.8,40.8,26.0,34.7,30.1,23.5,92,68,39,30.47,30.19,8,2,13,0.00
2014-1-1,71.2,51.0,35.3,47.8,38.0,29.6,88,64,37,30.20,29.91,15,3,23,0.00
2014-1-2,46.0,35.5,26.6,29.6,23.3,20.4,80,63,40,30.50,30.21,13,5,16,0.00